Location: Newark
(39.0622°N, 106.5590°E)
Time: 01:11:11
(UTC+00:00)

S-56A Canister/Altair - Pass Details

Date: 25 January 2020
Orbit: 633 x 2500 km, 38.9° (Epoch: 26 February)

Event Time Altitude Azimuth Distance (km) Brightness Sun altitude
Rises 12:45:02 0° 237° (WSW) 4,329 12.2 -30.9°
Reaches altitude 10° 12:48:30 10° 233° (SW) 3,060 11.2 -31.5°
Enters shadow 12:53:40 40° 203° (SSW) 1,341 8.8 -32.5°
